Regional Weather Roundup
Issued by NWS Wakefield, VA

Home | Current Version | Previous Version | Graphics & Text | Print | Product List | Glossary On
Versions: 1 2 3 4 5 6 7 8 9 10 11 12 13 14 15 16 17 18 19 20 21 22 23 24 25 26 27 28 29 30 31 32 33 34 35 36 37 38 39 40 41 42 43 44 45 46 47 48 49 50
000
ASUS41 KAKQ 220715
RWRAKQ

REGIONAL WEATHER ROUNDUP
NATIONAL WEATHER SERVICE WAKEFIELD VA
300 AM EDT SAT JUL 22 2017

Note: "fair" indicates few or no clouds below 12,000 feet with no
significant weather and/or obstructions to visibility. * = Denotes
station may not report precipitation (e.g., rain,snow,etc.),
thunder or fog.

VAZ042-051-052>054-056-220800-
NORTHERN VIRGINIA

CITY           SKY/WX    TMP DP  RH WIND       PRES   REMARKS
WASH NATIONAL  CLOUDY    82  74  76 N10       29.88F
DULLES         CLOUDY    79  70  74 N7        29.90F
FORT BELVOIR   CLOUDY    81  71  71 NW6       29.88S
QUANTICO       CLOUDY    78  73  84 NW8       29.89S
FREDERICKSBRG* CLEAR     77  72  84 SW3       29.89F
STAFFORD*      CLEAR     73  73  99 NW5       29.94F
WARRENTON      CLOUDY    73  69  87 CALM      29.91F
CULPEPER*      CLOUDY    73  73  97 CALM      29.92F
MANASSAS*      CLOUDY    75  72  90 CALM      29.90F
LEESBURG*      CLOUDY    79  73  83 N7        29.92F
WINCHESTER     CLOUDY    70  68  94 CALM      29.94F
FRONT ROYAL*   MOSUNNY   72  70  94 SW5       29.94F
LURAY*         PTSUNNY   72  70  94 CALM      29.97F
$$

VAZ048-049-060>072-079>083-220800-
CENTRAL AND SOUTH CENTRAL VIRGINIA

CITY           SKY/WX    TMP DP  RH WIND       PRES   REMARKS
RICHMOND       PTCLDY    79  71  76 SW8       29.91F
CHESTERFIELD*  FAIR      76  71  85 CALM      29.92F
PETERSBURG*    PTCLDY    75  69  79 CALM      29.93S
HANOVER        PTCLDY    77  69  76 CALM      29.91F
TAPPAHANNOCK*  PTCLDY    78  67  70 SW3       29.91S
QUINTON*       FAIR      77  74  88 CALM      29.90F
CHARLOTTSVILLE CLEAR     77  70  79 CALM      29.93F
GORDONSVILLE*  SUNNY     72  70  94 CALM      29.92S
ORANGE*        CLEAR     72  68  88 CALM      29.92F
LOUISA*        CLEAR     72  68  88 CALM      29.92F
BUMPASS*       FAIR      71  71 100 CALM      29.91F
FARMVILLE*     CLEAR     72  70  93 CALM      29.93S
CREWE*         FAIR      76  71  83 SW3       29.93F
FORT PICKETT*  FAIR     N/A N/A N/A SW6       29.94F
CHASE CITY*    FAIR      74  74  99 CALM      29.95F
CLARKSVILLE*   FAIR      72  72 100 CALM      29.95F
SOUTH HILL*    MOCLDY    74  73  97 SW3       30.00F
LAWRENCEVILLE* PTSUNNY   76  71  85 CALM      29.94F
EMPORIA*       PTCLDY    75  72  88 CALM      29.94F
$$

VAZ088>098-220800-
SOUTHEAST VIRGINIA

CITY           SKY/WX    TMP DP  RH WIND       PRES   REMARKS
NORFOLK        CLEAR     81  73  76 SW13      29.90F
VIRGINIA BEACH PTCLDY    79  72  79 SW9       29.90F
NORFOLK NAVAL  PTCLDY    81  72  74 SW9       29.91F
WEST POINT*    CLEAR     79  72  79 W3        29.91S
SALUDA*        FAIR      80  75  84 SW5       29.89F
NEWPORT NEWS   PTCLDY    79  73  82 SW9       29.91S
LANGLEY AFB    PTCLDY    80  74  81 W9        29.90F
FORT EUSTIS    PTCLDY    79  74  84 SW6       29.89S
WILLIAMSBURG*  CLEAR     82  73  74 CALM      29.92S
HR EXEC AP*    FAIR      77  72  83 SW6       29.90S
FRANKLIN*      CLEAR     77  72  83 SW5       29.93F
US460-WAKEFLD  CLEAR     78  75  90 SW5       29.92S
$$

VAZ020-022-025-037-045-220800-
WEST CENTRAL AND SOUTHWEST VIRGINIA

CITY           SKY/WX    TMP DP  RH WIND       PRES   REMARKS
STAUNTON*      CLEAR     67  67  98 CALM      30.00F FOG
WAYNESBORO*    SUNNY     71  69  93 CALM      30.00F
HOT SPRINGS VA CLEAR     68  63  83 W10       30.13F
LYNCHBURG      CLEAR     71  70  96 S5        29.98S FOG
DANVILLE       CLOUDY    73  73 100 CALM      29.96F
SOUTH BOSTON*  PTSUNNY   71  70  95 S3        29.95F
MARTINSVILLE   CLOUDY    73  71  95 CALM      30.01F
ROANOKE        CLEAR     77  69  76 CALM      30.01F
BLACKSBURG     CLEAR     70  67  91 CALM      30.09F
DUBLIN*        MOCLDY    73  67  81 CALM      30.07F
MARION*        PTCLDY    70  66  88 W5        30.12F FOG
HILLSVILLE*    PTCLDY    70  65  85 CALM      30.10F
RICHLANDS*     PTSUNNY   73  65  75 S3        30.10F
WISE*          CLEAR     72  72 100 CALM      30.11F
ABINGDON*      PTCLDY    73  70  90 CALM      30.07F
$$

MDZ021>025-VAZ099-100-220800-
SOUTHERN MARYLAND AND THE DELMARVA PENINSULA

CITY           SKY/WX    TMP DP  RH WIND       PRES   REMARKS
PATUXENT RIVER PTCLDY    79  75  87 SW3       29.87S
BAY BRIDGE APT CLOUDY    82  79  89 N3        29.87S
LEONARDTOWN    CLEAR     77  70  78 W5        29.89S
DOVER          MOCLDY    75  75 100 E8        29.86S THUNDER
GEORGETOWN     CLOUDY    81  72  74 NW5       29.89R
EASTON         PTCLDY    81  76  85 E3        29.90F
CAMBRIDGE      MOCLDY    82  77  83 W5        29.86S
SALISBURY      NOT AVBL
OCEAN CITY     CLOUDY    81  77  88 SW5       29.87F
WALLOPS ISLAND PTCLDY    82  76  81 SW9       29.87F
ACCOMACK*      PTCLDY    82  76  80 SW8       29.88F
$$

NCZ012>017-030>032-220800-
NORTH CENTRAL AND EASTERN NORTH CAROLINA

CITY           SKY/WX    TMP DP  RH WIND       PRES   REMARKS
ROANOKE RAPIDS FAIR      73  72  94 SW3       29.94F
RALEIGH        MOCLDY    77  72  84 SW7       29.97S
ELIZABETH CITY MOCLDY    79  77  94 SW9       29.94F
AHOSKIE*         N/A     76  72  88 CALM      29.94F
EDENTON*       MOCLDY    82  75  79 SW10      29.96F
CURRITUCK*     MOCLDY    80  76  89 SW3       29.94S
KILL DEVIL HLS MOCLDY    80  73  77 SW6       29.94F
MANTEO         MOCLDY    80  74  81 W15       29.95F
CAPE HATTERAS  PTCLDY    77  74  90 W9        29.99S
TARBORO*       NOT AVBL
GOLDSBORO      CLOUDY    78  78 100 SW5       29.95F
WASHINGTON     PTCLDY    78  73  85 SW7       29.96F
GREENVILLE     MOCLDY    79  73  83 SW6       29.98F
NEW BERN       CLEAR     76  75  97 S6        29.99F
WILMINGTON     CLEAR     78  76  93 SW7       29.99F
$$

VAZ048-220800-
ELSEWHERE

CITY           SKY/WX    TMP DP  RH WIND       PRES   REMARKS
HARRISBURG PA  PTCLDY    77  75  93 NW5       29.89S
BALTIMORE      MOCLDY    80  75  84 N6        29.87F
ANNAPOLIS      CLOUDY    80  80 100 N5        29.85F
ANDREWS AFB    CLOUDY    81  73  78 N7        29.87S
PHILADELPHIA   MOCLDY    82  74  76 SW3       29.87F
HENDERSON NC   PTCLDY    74  70  88 SW3       29.96F
GREENSBORO     PTCLDY    77  74  90 W6        29.98S
ROCKY MOUNT    PTCLDY    76  73  91 S6        29.96F
$$

VAZ100-220800-
MARINE

STATION/POSITION TIME  TEMP    WIND        PRES    WAVE   SWELL
                       AIR SEA DIR/SP/G            HT/PER HT/PER
                 (UTC) (F)     (DEG/KT/KT) (MB)    (FT/S) (FT/S)
BRANDYWINE LGT   0648          330/ 14/ 17   N/A
CAPE MAY NJ      0636   78 73  260/ 13/ 20 1011.2S
LEWES DE         0642   81 73  330/  7/ 10 1011.3S
15NM E FENWICK I 0650   77 74  190/  8/ 10 1011.9F   2/ 8   2/ 8
OCEAN-CITY-INLET 0648          210/  5/  6   N/A
WACHAPREAGUE VA  0642   82 87  210/  5/  8 1011.8F
THOMAS POINT MD  0700   84 84  360/  5/  6   N/A
GOOSES REEF MD   0700   83 85  300/  8/ 10 1011.9    1/ 2
COVE POINT MD    0642   81     270/  9/ 13 1011.8F
SOLOMONS ISLAND  0648          310/  4/  6   N/A
BISHOPS HEAD MD  0642   85 87  240/ 12/ 15 1011.5S
PINEY POINT MD   0648          270/  7/  9   N/A
POTOMAC MD       0700   84 84  260/ 12/ 16 1010.5    2/ 2
CAMBRIDGE MD     0642   83 88              1012.1F
LEWISETTA VA     0642   82 86  250/  7/  7 1011.7F
RAPPAHANNOCK LGT 0642          220/ 13/ 14 1012.5F
STINGRAY PT      0650   84     280/ 12/ 16 1011.7F
YORK RVR RNG VA  0642   82     250/ 14/ 16 1012.5F
YORKTOWN VA      0642   81 83  230/  8/ 13 1012.1F
JAMESTOWN VA     0700      87  250/ 10/ 14   N/A
DOMINION TERM VA 0642   81     240/ 15/ 17 1012.5F
KIPTOPEKE VA     0642      78  230/ 13/ 15   N/A
CHES BAY BRIDGE  0642   82 79  230/ 15/ 16 1012.4F
CAPE HENRY VA    0642   81     220/ 10/ 14   N/A
WILLOUBY STN VA  0642   81     230/ 14/ 15 1012.4F
S CRANEY ISL VA  0642   81     230/  9/ 13 1012.5F
CAPE HENRY BUOY  0700      73                N/A     2/10   2/14
1ST LANDING BUOY 0700   82 77              1012.3    1/ 2
64NM E OF VA BCH 0650   81 80  220/ 14/ 16 1013.6F   3/ 5   2/ 8
DUCK PIER NC     0642   81 60  230/ 13/ 19 1013.5F
44100 DUCK FRF   0605      70                N/A     2/10
44056 DUCK FRF   0700      62                N/A     2/11
OREGON INLET NC  0648          220/ 18/ 22   N/A
HATTERAS NC      0642   77 78  230/  8/ 11 1015.3F
DIAMOND SHLS NC  0650   83 84  240/ 19/ 23 1014.9F   5/ 5   2/ 9
CAPE LOOKOUT NC  0700   81     230/ 10/ 13 1015.0F
$$



USA.gov is the U.S. government's official web portal to all federal, state and local government web resources and services.